| time (UTC) | temp F | wind direction | speed MPH | gust MPH | rain 1hr in | rain 24hr in | rain mn in | humidity % | barometer mb |
| 20260901115039 | 71 | 360 | 2.0 | 8.0 | 0.00 | 0.00 | 0.00 | 54 | 1020.9 |
| 20260901114627 | 70 | 360 | 2.0 | 5.0 | 0.00 | 0.00 | 0.00 | 54 | 1020.8 |
| 20260901114043 | 70 | 360 | 1.0 | 3.0 | 0.00 | 0.00 | 0.00 | 54 | 1020.9 |
| 20260901113539 | 71 | 360 | 1.0 | 4.0 | 0.00 | 0.00 | 0.00 | 54 | 1020.8 |
| 20260901113100 | 71 | 360 | 1.0 | 4.0 | 0.00 | 0.00 | 0.00 | 54 | 1020.7 |
| 20260901112541 | 71 | 360 | 1.0 | 4.0 | 0.00 | 0.00 | 0.00 | 53 | 1020.6 |
| 20260901112039 | 71 | 360 | 1.0 | 4.0 | 0.00 | 0.00 | 0.00 | 53 | 1020.6 |
| 20260901111601 | 71 | 360 | 2.0 | 4.0 | 0.00 | 0.00 | 0.00 | 53 | 1020.5 |
| 20260901111040 | 71 | 360 | 1.0 | 3.0 | 0.00 | 0.00 | 0.00 | 54 | 1020.5 |
| 20260901110541 | 71 | 0 | 1.0 | 3.0 | 0.00 | 0.00 | 0.00 | 54 | 1020.4 |
| 20260901110105 | 70 | 360 | 0.0 | 2.0 | 0.00 | 0.00 | 0.00 | 55 | 1020.5 |
| 20260901105541 | 70 | 0 | 0.0 | 3.0 | 0.00 | 0.00 | 0.00 | 55 | 1020.4 |
| 20260901105041 | 71 | 360 | 0.0 | 4.0 | 0.00 | 0.00 | 0.00 | 55 | 1020.4 |
| 20260901104557 | 71 | 0 | 0.0 | 4.0 | 0.00 | 0.00 | 0.00 | 55 | 1020.2 |
| 20260901104039 | 71 | 0 | 0.0 | 4.0 | 0.00 | 0.00 | 0.00 | 55 | 1020.1 |
| 20260901103542 | 71 | 0 | 0.0 | 2.0 | 0.00 | 0.00 | 0.00 | 54 | 1020.1 |
| 20260901103107 | 71 | 0 | 0.0 | 2.0 | 0.00 | 0.00 | 0.00 | 54 | 1020.0 |
| 20260901102541 | 72 | 360 | 0.0 | 2.0 | 0.00 | 0.00 | 0.00 | 54 | 1020.0 |
| 20260901102041 | 72 | 0 | 0.0 | 1.0 | 0.00 | 0.00 | 0.00 | 53 | 1020.0 |
| 20260901101601 | 72 | 0 | 0.0 | 2.0 | 0.00 | 0.00 | 0.00 | 51 | 1020.1 |
| 20260901101039 | 73 | 360 | 0.0 | 2.0 | 0.00 | 0.00 | 0.00 | 51 | 1020.0 |
| 20260901100541 | 73 | 360 | 0.0 | 2.0 | 0.00 | 0.00 | 0.00 | 50 | 1020.0 |
| 20260901100105 | 73 | 0 | 0.0 | 2.0 | 0.00 | 0.00 | 0.00 | 49 | 1020.0 |
| 20260901095541 | 74 | 0 | 0.0 | 2.0 | 0.00 | 0.00 | 0.00 | 48 | 1020.0 |
| 20260901095041 | 74 | 360 | 0.0 | 3.0 | 0.00 | 0.00 | 0.00 | 48 | 1019.9 |
| 20260901094602 | 74 | 360 | 1.0 | 3.0 | 0.00 | 0.00 | 0.00 | 48 | 1019.9 |
| 20260901094042 | 74 | 360 | 1.0 | 3.0 | 0.00 | 0.00 | 0.00 | 47 | 1019.9 |
| 20260901093541 | 75 | 360 | 0.0 | 2.0 | 0.00 | 0.00 | 0.00 | 47 | 1019.7 |
| 20260901093055 | 75 | 360 | 0.0 | 4.0 | 0.00 | 0.00 | 0.00 | 46 | 1019.7 |
| 20260901092541 | 76 | 360 | 0.0 | 6.0 | 0.00 | 0.00 | 0.00 | 45 | 1019.5 |
| 20260901092040 | 76 | 175 | 2.0 | 6.0 | 0.00 | 0.00 | 0.00 | 45 | 1019.6 |
| 20260901091558 | 76 | 163 | 2.0 | 6.0 | 0.00 | 0.00 | 0.00 | 43 | 1019.4 |
| 20260901091040 | 77 | 0 | 1.0 | 6.0 | 0.00 | 0.00 | 0.00 | 43 | 1019.5 |
| 20260901090540 | 77 | 168 | 2.0 | 5.0 | 0.00 | 0.00 | 0.00 | 43 | 1019.4 |
| 20260901090059 | 77 | 175 | 2.0 | 8.0 | 0.00 | 0.00 | 0.00 | 42 | 1019.4 |
| 20260901085542 | 78 | 233 | 2.0 | 9.0 | 0.00 | 0.00 | 0.00 | 42 | 1019.3 |
| 20260901085040 | 78 | 244 | 2.0 | 9.0 | 0.00 | 0.00 | 0.00 | 40 | 1019.3 |
| 20260901084603 | 78 | 250 | 3.0 | 8.0 | 0.00 | 0.00 | 0.00 | 40 | 1019.2 |
| 20260901084039 | 79 | 146 | 3.0 | 8.0 | 0.00 | 0.00 | 0.00 | 40 | 1019.1 |
| 20260901083540 | 79 | 193 | 4.0 | 9.0 | 0.00 | 0.00 | 0.00 | 39 | 1019.1 |
| 20260901083107 | 79 | 206 | 3.0 | 9.0 | 0.00 | 0.00 | 0.00 | 39 | 1019.1 |
| 20260901082538 | 80 | 360 | 3.0 | 9.0 | 0.00 | 0.00 | 0.00 | 39 | 1019.1 |
| 20260901082038 | 80 | 360 | 2.0 | 8.0 | 0.00 | 0.00 | 0.00 | 38 | 1019.1 |
| 20260901081559 | 80 | 360 | 2.0 | 10.0 | 0.00 | 0.00 | 0.00 | 39 | 1019.1 |
| 20260901081039 | 80 | 360 | 3.0 | 10.0 | 0.00 | 0.00 | 0.00 | 38 | 1019.0 |
| 20260901080542 | 80 | 360 | 3.0 | 8.0 | 0.00 | 0.00 | 0.00 | 39 | 1019.1 |
| 20260901080104 | 80 | 360 | 1.0 | 8.0 | 0.00 | 0.00 | 0.00 | 39 | 1019.1 |
| 20260901075543 | 80 | 360 | 2.0 | 8.0 | 0.00 | 0.00 | 0.00 | 39 | 1019.0 |
| 20260901075043 | 80 | 103 | 2.0 | 8.0 | 0.00 | 0.00 | 0.00 | 39 | 1018.9 |
| 20260901074601 | 80 | 123 | 3.0 | 7.0 | 0.00 | 0.00 | 0.00 | 37 | 1018.9 |
| 20260901074041 | 81 | 128 | 2.0 | 10.0 | 0.00 | 0.00 | 0.00 | 38 | 1018.8 |
| 20260901073539 | 81 | 125 | 1.0 | 10.0 | 0.00 | 0.00 | 0.00 | 36 | 1018.8 |
| 20260901073102 | 81 | 165 | 2.0 | 8.0 | 0.00 | 0.00 | 0.00 | 38 | 1018.9 |
| 20260901072541 | 80 | 360 | 2.0 | 6.0 | 0.00 | 0.00 | 0.00 | 37 | 1018.9 |
| 20260901072041 | 81 | 157 | 2.0 | 7.0 | 0.00 | 0.00 | 0.00 | 37 | 1018.9 |
| 20260901071600 | 81 | 192 | 2.0 | 9.0 | 0.00 | 0.00 | 0.00 | 38 | 1018.8 |
| 20260901071042 | 81 | 116 | 4.0 | 10.0 | 0.00 | 0.00 | 0.00 | 38 | 1018.8 |
| 20260901070540 | 81 | 139 | 4.0 | 10.0 | 0.00 | 0.00 | 0.00 | 38 | 1018.8 |
| 20260901070100 | 81 | 130 | 2.0 | 8.0 | 0.00 | 0.00 | 0.00 | 39 | 1018.6 |
| 20260901065541 | 81 | 119 | 2.0 | 8.0 | 0.00 | 0.00 | 0.00 | 38 | 1018.7 |
| 20260901065041 | 81 | 128 | 2.0 | 7.0 | 0.00 | 0.00 | 0.00 | 38 | 1018.7 |
| 20260901064557 | 81 | 139 | 2.0 | 8.0 | 0.00 | 0.00 | 0.00 | 39 | 1018.7 |
| 20260901064040 | 81 | 126 | 3.0 | 9.0 | 0.00 | 0.00 | 0.00 | 39 | 1018.7 |
| 20260901063540 | 81 | 179 | 3.0 | 9.0 | 0.00 | 0.00 | 0.00 | 38 | 1018.8 |
| 20260901063110 | 81 | 121 | 3.0 | 8.0 | 0.00 | 0.00 | 0.00 | 39 | 1018.8 |
| 20260901062541 | 82 | 136 | 2.0 | 8.0 | 0.00 | 0.00 | 0.00 | 38 | 1018.7 |
| 20260901062041 | 82 | 155 | 2.0 | 6.0 | 0.00 | 0.00 | 0.00 | 38 | 1018.8 |
| 20260901061617 | 82 | 254 | 3.0 | 7.0 | 0.00 | 0.00 | 0.00 | 37 | 1018.8 |
| 20260901061041 | 82 | 269 | 1.0 | 14.0 | 0.00 | 0.00 | 0.00 | 38 | 1018.9 |
| 20260901060541 | 81 | 126 | 3.0 | 14.0 | 0.00 | 0.00 | 0.00 | 38 | 1018.9 |
| 20260901060106 | 81 | 142 | 3.0 | 9.0 | 0.00 | 0.00 | 0.00 | 39 | 1018.9 |
| 20260901055539 | 81 | 261 | 2.0 | 7.0 | 0.00 | 0.00 | 0.00 | 39 | 1019.0 |
| 20260901055041 | 80 | 194 | 1.0 | 9.0 | 0.00 | 0.00 | 0.00 | 39 | 1019.0 |
| 20260901054557 | 80 | 119 | 3.0 | 10.0 | 0.00 | 0.00 | 0.00 | 40 | 1019.0 |
| 20260901054043 | 80 | 360 | 4.0 | 10.0 | 0.00 | 0.00 | 0.00 | 40 | 1019.1 |
| 20260901053543 | 80 | 168 | 3.0 | 9.0 | 0.00 | 0.00 | 0.00 | 41 | 1019.1 |
| 20260901053101 | 79 | 107 | 3.0 | 9.0 | 0.00 | 0.00 | 0.00 | 42 | 1018.9 |
| 20260901052544 | 80 | 118 | 3.0 | 8.0 | 0.00 | 0.00 | 0.00 | 43 | 1019.0 |
| 20260901052042 | 80 | 109 | 4.0 | 10.0 | 0.00 | 0.00 | 0.00 | 43 | 1019.2 |
| 20260901051615 | 79 | 140 | 3.0 | 11.0 | 0.00 | 0.00 | 0.00 | 42 | 1019.3 |
| 20260901051043 | 79 | 207 | 3.0 | 11.0 | 0.00 | 0.00 | 0.00 | 44 | 1019.2 |
| 20260901050543 | 79 | 140 | 7.0 | 11.0 | 0.00 | 0.00 | 0.00 | 42 | 1019.4 |
| 20260901050109 | 79 | 139 | 3.0 | 11.0 | 0.00 | 0.00 | 0.00 | 44 | 1019.4 |
| 20260901045542 | 78 | 153 | 5.0 | 11.0 | 0.00 | 0.00 | 0.00 | 45 | 1019.6 |
| 20260901045041 | 79 | 106 | 3.0 | 10.0 | 0.00 | 0.00 | 0.00 | 45 | 1019.7 |
| 20260901044602 | 79 | 119 | 4.0 | 10.0 | 0.00 | 0.00 | 0.00 | 44 | 1019.6 |
| 20260901044042 | 79 | 137 | 5.0 | 9.0 | 0.00 | 0.00 | 0.00 | 46 | 1019.8 |
| 20260901043542 | 79 | 181 | 4.0 | 13.0 | 0.00 | 0.00 | 0.00 | 46 | 1019.9 |
| 20260901043055 | 79 | 111 | 4.0 | 13.0 | 0.00 | 0.00 | 0.00 | 45 | 1019.9 |
| 20260901042549 | 79 | 135 | 3.0 | 9.0 | 0.00 | 0.00 | 0.00 | 45 | 1020.0 |
| 20260901042039 | 79 | 135 | 3.0 | 12.0 | 0.00 | 0.00 | 0.00 | 46 | 1020.0 |
| 20260901041602 | 78 | 184 | 5.0 | 12.0 | 0.00 | 0.00 | 0.00 | 46 | 1019.9 |
| 20260901041042 | 79 | 100 | 4.0 | 10.0 | 0.00 | 0.00 | 0.00 | 46 | 1019.9 |
| 20260901040544 | 79 | 125 | 5.0 | 10.0 | 0.00 | 0.00 | 0.00 | 46 | 1020.0 |
| 20260901040057 | 79 | 360 | 3.0 | 10.0 | 0.00 | 0.00 | 0.00 | 46 | 1019.9 |
| 20260901035542 | 78 | 360 | 5.0 | 10.0 | 0.00 | 0.00 | 0.00 | 46 | 1020.2 |
| 20260901035041 | 78 | 360 | 4.0 | 11.0 | 0.00 | 0.00 | 0.00 | 46 | 1020.1 |
| 20260901034609 | 78 | 360 | 4.0 | 11.0 | 0.00 | 0.00 | 0.00 | 47 | 1020.3 |
| 20260901034042 | 78 | 360 | 4.0 | 11.0 | 0.00 | 0.00 | 0.00 | 48 | 1020.4 |
| 20260901033542 | 78 | 360 | 5.0 | 11.0 | 0.00 | 0.00 | 0.00 | 47 | 1020.5 |
| 20260901033111 | 78 | 360 | 5.0 | 11.0 | 0.00 | 0.00 | 0.00 | 47 | 1020.4 |
| 20260901032545 | 78 | 360 | 5.0 | 11.0 | 0.00 | 0.00 | 0.00 | 46 | 1020.4 |
| 20260901032042 | 78 | 360 | 2.0 | 10.0 | 0.00 | 0.00 | 0.00 | 47 | 1020.3 |
| 20260901031602 | 78 | 360 | 5.0 | 10.0 | 0.00 | 0.00 | 0.00 | 47 | 1020.4 |
| 20260901031039 | 77 | 360 | 4.0 | 10.0 | 0.00 | 0.00 | 0.00 | 48 | 1020.4 |
| 20260901030542 | 77 | 360 | 5.0 | 10.0 | 0.00 | 0.00 | 0.00 | 48 | 1020.5 |
| 20260901030055 | 77 | 360 | 4.0 | 12.0 | 0.00 | 0.00 | 0.00 | 47 | 1020.4 |
| 20260901025542 | 77 | 360 | 6.0 | 12.0 | 0.00 | 0.00 | 0.00 | 47 | 1020.5 |
| 20260901025049 | 77 | 360 | 6.0 | 12.0 | 0.00 | 0.00 | 0.00 | 47 | 1020.4 |
| 20260901024557 | 77 | 360 | 4.0 | 13.0 | 0.00 | 0.00 | 0.00 | 47 | 1020.6 |
| 20260901024043 | 76 | 140 | 6.0 | 13.0 | 0.00 | 0.00 | 0.00 | 48 | 1020.7 |
| 20260901023541 | 76 | 198 | 6.0 | 14.0 | 0.00 | 0.00 | 0.00 | 49 | 1020.5 |
| 20260901023059 | 76 | 118 | 8.0 | 16.0 | 0.00 | 0.00 | 0.00 | 48 | 1020.2 |
| 20260901022542 | 75 | 141 | 7.0 | 17.0 | 0.00 | 0.00 | 0.00 | 48 | 1019.9 |
| 20260901022041 | 75 | 138 | 8.0 | 17.0 | 0.00 | 0.00 | 0.00 | 48 | 1019.9 |
| 20260901021601 | 75 | 171 | 9.0 | 17.0 | 0.00 | 0.00 | 0.00 | 48 | 1019.9 |
| 20260901021042 | 76 | 167 | 6.0 | 12.0 | 0.00 | 0.00 | 0.00 | 47 | 1020.2 |
| 20260901020543 | 76 | 142 | 5.0 | 12.0 | 0.00 | 0.00 | 0.00 | 47 | 1020.2 |
| 20260901020056 | 76 | 196 | 5.0 | 11.0 | 0.00 | 0.00 | 0.00 | 47 | 1020.4 |
| 20260901015543 | 76 | 360 | 5.0 | 11.0 | 0.00 | 0.00 | 0.00 | 47 | 1020.8 |
| 20260901015044 | 75 | 138 | 5.0 | 13.0 | 0.00 | 0.00 | 0.00 | 48 | 1020.8 |
| 20260901014609 | 74 | 132 | 6.0 | 13.0 | 0.00 | 0.00 | 0.00 | 49 | 1020.9 |
| 20260901014045 | 74 | 116 | 6.0 | 15.0 | 0.00 | 0.00 | 0.00 | 50 | 1020.8 |
| 20260901013541 | 74 | 360 | 8.0 | 15.0 | 0.00 | 0.00 | 0.00 | 51 | 1020.8 |
| 20260901013058 | 74 | 130 | 4.0 | 16.0 | 0.00 | 0.00 | 0.00 | 51 | 1020.8 |
| 20260901012545 | 73 | 160 | 8.0 | 16.0 | 0.00 | 0.00 | 0.00 | 52 | 1020.8 |
| 20260901012040 | 73 | 142 | 6.0 | 15.0 | 0.00 | 0.00 | 0.00 | 53 | 1020.8 |
| 20260901011559 | 73 | 198 | 5.0 | 15.0 | 0.00 | 0.00 | 0.00 | 53 | 1020.7 |
| 20260901011044 | 72 | 148 | 6.0 | 12.0 | 0.00 | 0.00 | 0.00 | 53 | 1020.8 |
| 20260901010544 | 72 | 360 | 4.0 | 12.0 | 0.00 | 0.00 | 0.00 | 55 | 1020.8 |
| 20260901010059 | 72 | 360 | 6.0 | 12.0 | 0.00 | 0.00 | 0.00 | 55 | 1020.7 |
| 20260901005544 | 72 | 130 | 5.0 | 12.0 | 0.00 | 0.00 | 0.00 | 55 | 1020.7 |
| 20260901005043 | 72 | 171 | 3.0 | 11.0 | 0.00 | 0.00 | 0.00 | 55 | 1020.7 |
| 20260901004612 | 72 | 173 | 4.0 | 11.0 | 0.00 | 0.00 | 0.00 | 56 | 1020.7 |
| 20260901004044 | 72 | 127 | 3.0 | 11.0 | 0.00 | 0.00 | 0.00 | 56 | 1020.7 |
| 20260901003541 | 72 | 126 | 4.0 | 11.0 | 0.00 | 0.00 | 0.00 | 56 | 1020.7 |
| 20260901003102 | 71 | 163 | 4.0 | 10.0 | 0.00 | 0.00 | 0.00 | 56 | 1020.7 |
| 20260901002545 | 71 | 152 | 2.0 | 13.0 | 0.00 | 0.00 | 0.00 | 57 | 1020.6 |
| 20260901002043 | 71 | 155 | 4.0 | 13.0 | 0.00 | 0.00 | 0.00 | 57 | 1020.6 |
| 20260901001602 | 71 | 360 | 4.0 | 12.0 | 0.00 | 0.00 | 0.00 | 57 | 1020.6 |
| 20260901001044 | 70 | 129 | 5.0 | 12.0 | 0.00 | 0.00 | 0.00 | 57 | 1020.5 |
| 20260901000544 | 71 | 139 | 4.0 | 11.0 | 0.00 | 0.00 | 0.00 | 57 | 1020.4 |
| 20260901000109 | 71 | 122 | 4.0 | 11.0 | 0.00 | 0.00 | 0.00 | 56 | 1020.2 |
| 20260831235543 | 70 | 177 | 3.0 | 11.0 | 0.00 | 0.00 | 0.00 | 57 | 1020.3 |
| 20260831235041 | 70 | 147 | 4.0 | 12.0 | 0.00 | 0.00 | 0.00 | 57 | 1020.2 |
| 20260831234551 | 70 | 148 | 5.0 | 12.0 | 0.00 | 0.00 | 0.00 | 56 | 1020.1 |
| 20260831234044 | 70 | 174 | 5.0 | 10.0 | 0.00 | 0.00 | 0.00 | 56 | 1019.9 |
| 20260831233544 | 70 | 131 | 3.0 | 10.0 | 0.00 | 0.00 | 0.00 | 56 | 1019.8 |
| 20260831233100 | 70 | 181 | 3.0 | 10.0 | 0.00 | 0.00 | 0.00 | 58 | 1019.6 |
| 20260831232544 | 69 | 132 | 4.0 | 9.0 | 0.00 | 0.00 | 0.00 | 57 | 1019.4 |
| 20260831232044 | 69 | 115 | 4.0 | 8.0 | 0.00 | 0.00 | 0.00 | 58 | 1019.2 |
| 20260831231606 | 68 | 132 | 4.0 | 8.0 | 0.00 | 0.00 | 0.00 | 59 | 1019.1 |
| 20260831231044 | 68 | 130 | 3.0 | 8.0 | 0.00 | 0.00 | 0.00 | 59 | 1019.1 |
| 20260831230547 | 68 | 123 | 3.0 | 8.0 | 0.00 | 0.00 | 0.00 | 60 | 1019.0 |
| 20260831230058 | 67 | 141 | 2.0 | 7.0 | 0.00 | 0.00 | 0.00 | 60 | 1018.9 |
| 20260831225543 | 67 | 148 | 2.0 | 7.0 | 0.00 | 0.00 | 0.00 | 61 | 1019.1 |
| 20260831225043 | 66 | 179 | 3.0 | 7.0 | 0.00 | 0.00 | 0.00 | 63 | 1019.1 |
| 20260831224553 | 65 | 215 | 2.0 | 7.0 | 0.00 | 0.00 | 0.00 | 65 | 1019.1 |
| 20260831224040 | 64 | 170 | 1.0 | 4.0 | 0.00 | 0.00 | 0.00 | 67 | 1018.9 |
| 20260831223540 | 63 | 190 | 0.0 | 2.0 | 0.00 | 0.00 | 0.00 | 68 | 1018.8 |
| 20260831223105 | 63 | 360 | 0.0 | 2.0 | 0.00 | 0.00 | 0.00 | 69 | 1018.8 |
| 20260831222541 | 62 | 0 | 0.0 | 2.0 | 0.00 | 0.00 | 0.00 | 69 | 1018.6 |
| 20260831222040 | 62 | 0 | 0.0 | 2.0 | 0.00 | 0.00 | 0.00 | 69 | 1018.5 |
| 20260831221609 | 61 | 0 | 0.0 | 1.0 | 0.00 | 0.00 | 0.00 | 70 | 1018.6 |
| 20260831221042 | 61 | 0 | 0.0 | 2.0 | 0.00 | 0.00 | 0.00 | 69 | 1018.5 |
| 20260831220540 | 62 | 0 | 0.0 | 2.0 | 0.00 | 0.00 | 0.00 | 68 | 1018.4 |
| 20260831220057 | 62 | 0 | 0.0 | 2.0 | 0.00 | 0.00 | 0.00 | 67 | 1018.2 |
| 20260831215540 | 62 | 0 | 0.0 | 2.0 | 0.00 | 0.00 | 0.00 | 67 | 1018.2 |
| 20260831215040 | 62 | 360 | 0.0 | 4.0 | 0.00 | 0.00 | 0.00 | 67 | 1018.3 |
| 20260831214555 | 62 | 360 | 0.0 | 6.0 | 0.00 | 0.00 | 0.00 | 68 | 1018.2 |
| 20260831214042 | 61 | 360 | 1.0 | 6.0 | 0.00 | 0.00 | 0.00 | 70 | 1018.5 |
| 20260831213540 | 60 | 360 | 3.0 | 6.0 | 0.00 | 0.00 | 0.00 | 74 | 1018.2 |
| 20260831213101 | 59 | 360 | 0.0 | 0.0 | 0.00 | 0.00 | 0.00 | 75 | 1018.0 |
| 20260831212540 | 60 | 0 | 0.0 | 0.0 | 0.00 | 0.00 | 0.00 | 75 | 1017.6 |
| 20260831212041 | 60 | 0 | 0.0 | 0.0 | 0.00 | 0.00 | 0.00 | 75 | 1017.5 |
| 20260831211558 | 60 | 0 | 0.0 | 0.0 | 0.00 | 0.00 | 0.00 | 74 | 1017.4 |
| 20260831211042 | 60 | 0 | 0.0 | 1.0 | 0.00 | 0.00 | 0.00 | 74 | 1017.3 |
| 20260831210540 | 60 | 0 | 0.0 | 1.0 | 0.00 | 0.00 | 0.00 | 73 | 1017.2 |
| 20260831210100 | 60 | 0 | 0.0 | 0.0 | 0.00 | 0.00 | 0.00 | 73 | 1017.2 |
| 20260831205540 | 60 | 0 | 0.0 | 0.0 | 0.00 | 0.00 | 0.00 | 73 | 1017.0 |
| 20260831205045 | 60 | 0 | 0.0 | 0.0 | 0.00 | 0.00 | 0.00 | 72 | 1017.0 |
| 20260831204559 | 60 | 0 | 0.0 | 0.0 | 0.00 | 0.00 | 0.00 | 72 | 1017.0 |
| 20260831204041 | 60 | 0 | 0.0 | 0.0 | 0.00 | 0.00 | 0.00 | 72 | 1016.9 |
| 20260831203543 | 60 | 0 | 0.0 | 0.0 | 0.00 | 0.00 | 0.00 | 73 | 1017.0 |
| 20260831203105 | 61 | 0 | 0.0 | 1.0 | 0.00 | 0.00 | 0.00 | 72 | 1017.0 |
| 20260831202539 | 61 | 0 | 0.0 | 2.0 | 0.00 | 0.00 | 0.00 | 72 | 1017.0 |
| 20260831202040 | 61 | 0 | 0.0 | 2.0 | 0.00 | 0.00 | 0.00 | 72 | 1016.9 |
| 20260831201558 | 61 | 360 | 0.0 | 2.0 | 0.00 | 0.00 | 0.00 | 72 | 1016.9 |
| 20260831201041 | 61 | 0 | 0.0 | 0.0 | 0.00 | 0.00 | 0.00 | 73 | 1016.8 |
| 20260831200542 | 61 | 0 | 0.0 | 0.0 | 0.00 | 0.00 | 0.00 | 71 | 1017.0 |
| 20260831200101 | 61 | 0 | 0.0 | 0.0 | 0.00 | 0.00 | 0.00 | 70 | 1017.0 |
| 20260831195541 | 62 | 0 | 0.0 | 0.0 | 0.00 | 0.00 | 0.00 | 70 | 1017.0 |
| 20260831195040 | 62 | 0 | 0.0 | 0.0 | 0.00 | 0.00 | 0.00 | 69 | 1016.9 |
| 20260831194644 | 62 | 0 | 0.0 | 0.0 | 0.00 | 0.00 | 0.00 | 69 | 1017.0 |
| 20260831194042 | 62 | 0 | 0.0 | 0.0 | 0.00 | 0.00 | 0.00 | 69 | 1016.8 |
| 20260831193541 | 63 | 0 | 0.0 | 0.0 | 0.00 | 0.00 | 0.00 | 68 | 1016.9 |
| 20260831193059 | 63 | 0 | 0.0 | 0.0 | 0.00 | 0.00 | 0.00 | 67 | 1017.1 |
| 20260831192541 | 63 | 0 | 0.0 | 0.0 | 0.00 | 0.00 | 0.00 | 67 | 1017.0 |
| 20260831192042 | 63 | 0 | 0.0 | 0.0 | 0.00 | 0.00 | 0.00 | 65 | 1017.1 |
| 20260831191606 | 63 | 0 | 0.0 | 1.0 | 0.00 | 0.00 | 0.00 | 66 | 1017.0 |
| 20260831191044 | 63 | 0 | 0.0 | 1.0 | 0.00 | 0.00 | 0.00 | 64 | 1017.1 |
| 20260831190542 | 64 | 0 | 0.0 | 0.0 | 0.00 | 0.00 | 0.00 | 65 | 1017.1 |
| 20260831190121 | 64 | 0 | 0.0 | 0.0 | 0.00 | 0.00 | 0.00 | 65 | 1017.0 |
| 20260831185545 | 64 | 0 | 0.0 | 0.0 | 0.00 | 0.00 | 0.00 | 64 | 1017.2 |
| 20260831185042 | 64 | 0 | 0.0 | 0.0 | 0.00 | 0.00 | 0.00 | 64 | 1017.1 |
| 20260831184605 | 64 | 0 | 0.0 | 1.0 | 0.00 | 0.00 | 0.00 | 65 | 1017.3 |
| 20260831184042 | 64 | 0 | 0.0 | 2.0 | 0.00 | 0.00 | 0.00 | 64 | 1017.3 |
| 20260831183543 | 64 | 0 | 0.0 | 2.0 | 0.00 | 0.00 | 0.00 | 63 | 1017.3 |
| 20260831183101 | 64 | 360 | 0.0 | 2.0 | 0.00 | 0.00 | 0.00 | 64 | 1017.4 |
| 20260831182545 | 64 | 0 | 0.0 | 0.0 | 0.00 | 0.00 | 0.00 | 64 | 1017.4 |
| 20260831182040 | 64 | 0 | 0.0 | 1.0 | 0.00 | 0.00 | 0.00 | 64 | 1017.4 |
| 20260831181602 | 64 | 0 | 0.0 | 1.0 | 0.00 | 0.00 | 0.00 | 64 | 1017.5 |
| 20260831181042 | 64 | 360 | 0.0 | 0.0 | 0.00 | 0.00 | 0.00 | 64 | 1017.5 |
| 20260831180542 | 64 | 0 | 0.0 | 0.0 | 0.00 | 0.00 | 0.00 | 64 | 1017.6 |
| 20260831180059 | 65 | 0 | 0.0 | 0.0 | 0.00 | 0.00 | 0.00 | 63 | 1017.6 |
| 20260831175542 | 65 | 0 | 0.0 | 0.0 | 0.00 | 0.00 | 0.00 | 63 | 1017.6 |
| 20260831175042 | 65 | 0 | 0.0 | 1.0 | 0.00 | 0.00 | 0.00 | 63 | 1017.5 |
| 20260831174634 | 65 | 0 | 0.0 | 1.0 | 0.00 | 0.00 | 0.00 | 61 | 1017.6 |
| 20260831174044 | 65 | 360 | 0.0 | 1.0 | 0.00 | 0.00 | 0.00 | 61 | 1017.7 |
| 20260831173543 | 65 | 0 | 0.0 | 2.0 | 0.00 | 0.00 | 0.00 | 61 | 1017.7 |
| 20260831173059 | 66 | 0 | 0.0 | 2.0 | 0.00 | 0.00 | 0.00 | 62 | 1017.8 |
| 20260831172541 | 65 | 0 | 0.0 | 2.0 | 0.00 | 0.00 | 0.00 | 60 | 1017.9 |
| 20260831172041 | 65 | 0 | 0.0 | 0.0 | 0.00 | 0.00 | 0.00 | 60 | 1017.8 |
| 20260831171558 | 66 | 0 | 0.0 | 0.0 | 0.00 | 0.00 | 0.00 | 61 | 1018.0 |
| 20260831171042 | 66 | 0 | 0.0 | 3.0 | 0.00 | 0.00 | 0.00 | 62 | 1018.1 |
| 20260831170540 | 66 | 0 | 0.0 | 3.0 | 0.00 | 0.00 | 0.00 | 60 | 1018.2 |
| 20260831170058 | 66 | 360 | 0.0 | 3.0 | 0.00 | 0.00 | 0.00 | 59 | 1018.3 |
| 20260831165544 | 66 | 0 | 0.0 | 2.0 | 0.00 | 0.00 | 0.00 | 61 | 1018.4 |
| 20260831165045 | 66 | 360 | 0.0 | 1.0 | 0.00 | 0.00 | 0.00 | 59 | 1018.3 |
| 20260831164601 | 66 | 0 | 0.0 | 0.0 | 0.00 | 0.00 | 0.00 | 60 | 1018.2 |
| 20260831164041 | 65 | 0 | 0.0 | 0.0 | 0.00 | 0.00 | 0.00 | 59 | 1018.2 |
| 20260831163542 | 66 | 0 | 0.0 | 0.0 | 0.00 | 0.00 | 0.00 | 60 | 1018.3 |
| 20260831163106 | 66 | 0 | 0.0 | 1.0 | 0.00 | 0.00 | 0.00 | 61 | 1018.4 |
| 20260831162543 | 66 | 0 | 0.0 | 1.0 | 0.00 | 0.00 | 0.00 | 61 | 1018.5 |
| 20260831162041 | 66 | 0 | 0.0 | 1.0 | 0.00 | 0.00 | 0.00 | 61 | 1018.4 |
| 20260831161604 | 66 | 0 | 0.0 | 1.0 | 0.00 | 0.00 | 0.00 | 60 | 1018.5 |
| 20260831161042 | 66 | 0 | 0.0 | 1.0 | 0.00 | 0.00 | 0.00 | 60 | 1018.6 |
| 20260831160542 | 67 | 360 | 0.0 | 1.0 | 0.00 | 0.00 | 0.00 | 58 | 1018.6 |
| 20260831160057 | 67 | 0 | 0.0 | 1.0 | 0.00 | 0.00 | 0.00 | 57 | 1018.6 |
| 20260831155542 | 67 | 0 | 0.0 | 2.0 | 0.00 | 0.00 | 0.00 | 56 | 1018.5 |
| 20260831155045 | 67 | 0 | 0.0 | 3.0 | 0.00 | 0.00 | 0.00 | 56 | 1018.5 |
| 20260831154630 | 67 | 0 | 0.0 | 3.0 | 0.00 | 0.00 | 0.00 | 55 | 1018.4 |
| 20260831154041 | 67 | 360 | 1.0 | 4.0 | 0.00 | 0.00 | 0.00 | 55 | 1018.4 |
| 20260831153546 | 67 | 360 | 1.0 | 4.0 | 0.00 | 0.00 | 0.00 | 54 | 1018.3 |
| 20260831153115 | 67 | 360 | 1.0 | 4.0 | 0.00 | 0.00 | 0.00 | 54 | 1018.4 |
| 20260831152541 | 67 | 360 | 2.0 | 4.0 | 0.00 | 0.00 | 0.00 | 54 | 1018.4 |
| 20260831152044 | 67 | 360 | 2.0 | 4.0 | 0.00 | 0.00 | 0.00 | 55 | 1018.4 |
| 20260831151612 | 67 | 360 | 1.0 | 3.0 | 0.00 | 0.00 | 0.00 | 56 | 1018.6 |
| 20260831151043 | 67 | 360 | 1.0 | 3.0 | 0.00 | 0.00 | 0.00 | 56 | 1018.6 |
| 20260831150545 | 67 | 360 | 1.0 | 3.0 | 0.00 | 0.00 | 0.00 | 56 | 1018.6 |
| 20260831150101 | 67 | 360 | 0.0 | 3.0 | 0.00 | 0.00 | 0.00 | 56 | 1018.7 |
| 20260831145543 | 67 | 360 | 1.0 | 3.0 | 0.00 | 0.00 | 0.00 | 56 | 1018.8 |
| 20260831145042 | 67 | 360 | 0.0 | 2.0 | 0.00 | 0.00 | 0.00 | 56 | 1018.9 |
| 20260831144601 | 67 | 0 | 0.0 | 2.0 | 0.00 | 0.00 | 0.00 | 55 | 1018.8 |
| 20260831144042 | 67 | 360 | 0.0 | 2.0 | 0.00 | 0.00 | 0.00 | 54 | 1018.8 |
| 20260831143542 | 68 | 360 | 0.0 | 2.0 | 0.00 | 0.00 | 0.00 | 54 | 1018.7 |
| 20260831143058 | 68 | 360 | 0.0 | 2.0 | 0.00 | 0.00 | 0.00 | 53 | 1018.8 |
| 20260831142542 | 68 | 0 | 0.0 | 2.0 | 0.00 | 0.00 | 0.00 | 53 | 1018.8 |
| 20260831142041 | 68 | 0 | 0.0 | 3.0 | 0.00 | 0.00 | 0.00 | 52 | 1018.9 |
| 20260831141604 | 69 | 360 | 1.0 | 3.0 | 0.00 | 0.00 | 0.00 | 52 | 1018.9 |
| 20260831141043 | 69 | 360 | 1.0 | 3.0 | 0.00 | 0.00 | 0.00 | 51 | 1019.1 |
| 20260831140545 | 69 | 360 | 1.0 | 3.0 | 0.00 | 0.00 | 0.00 | 51 | 1019.1 |
| 20260831140056 | 69 | 360 | 1.0 | 3.0 | 0.00 | 0.00 | 0.00 | 50 | 1019.1 |
| 20260831135543 | 70 | 0 | 0.0 | 4.0 | 0.00 | 0.00 | 0.00 | 50 | 1019.1 |
| 20260831135044 | 70 | 360 | 1.0 | 4.0 | 0.00 | 0.00 | 0.00 | 49 | 1019.2 |
| 20260831134614 | 70 | 360 | 1.0 | 4.0 | 0.00 | 0.00 | 0.00 | 49 | 1019.1 |
| 20260831134043 | 70 | 360 | 1.0 | 3.0 | 0.00 | 0.00 | 0.00 | 48 | 1019.1 |
| 20260831133543 | 70 | 360 | 1.0 | 4.0 | 0.00 | 0.00 | 0.00 | 48 | 1019.2 |
| 20260831133107 | 71 | 360 | 1.0 | 4.0 | 0.00 | 0.00 | 0.00 | 48 | 1019.3 |
| 20260831132545 | 71 | 360 | 2.0 | 4.0 | 0.00 | 0.00 | 0.00 | 47 | 1019.3 |
| 20260831132122 | 71 | 360 | 1.0 | 4.0 | 0.00 | 0.00 | 0.00 | 47 | 1019.3 |
| 20260831131601 | 71 | 360 | 1.0 | 4.0 | 0.00 | 0.00 | 0.00 | 47 | 1019.4 |
| 20260831131040 | 71 | 360 | 1.0 | 3.0 | 0.00 | 0.00 | 0.00 | 47 | 1019.4 |
| 20260831130540 | 71 | 360 | 1.0 | 2.0 | 0.00 | 0.00 | 0.00 | 47 | 1019.3 |
| 20260831130057 | 71 | 360 | 1.0 | 3.0 | 0.00 | 0.00 | 0.00 | 47 | 1019.4 |
| 20260831125541 | 71 | 360 | 1.0 | 3.0 | 0.00 | 0.00 | 0.00 | 46 | 1019.5 |
| 20260831125041 | 72 | 360 | 1.0 | 3.0 | 0.00 | 0.00 | 0.00 | 46 | 1019.6 |
| 20260831124553 | 72 | 360 | 2.0 | 3.0 | 0.00 | 0.00 | 0.00 | 45 | 1019.5 |
| 20260831124045 | 72 | 360 | 1.0 | 3.0 | 0.00 | 0.00 | 0.00 | 45 | 1019.5 |
| 20260831123540 | 72 | 360 | 1.0 | 3.0 | 0.00 | 0.00 | 0.00 | 45 | 1019.5 |
| 20260831123103 | 72 | 360 | 1.0 | 3.0 | 0.00 | 0.00 | 0.00 | 44 | 1019.5 |
| 20260831122546 | 72 | 360 | 1.0 | 3.0 | 0.00 | 0.00 | 0.00 | 44 | 1019.5 |
| 20260831122040 | 72 | 360 | 1.0 | 3.0 | 0.00 | 0.00 | 0.00 | 45 | 1019.6 |
| 20260831121632 | 72 | 360 | 1.0 | 3.0 | 0.00 | 0.00 | 0.00 | 45 | 1019.5 |
| 20260831121041 | 72 | 360 | 0.0 | 2.0 | 0.00 | 0.00 | 0.00 | 45 | 1019.5 |
| 20260831120543 | 73 | 360 | 0.0 | 3.0 | 0.00 | 0.00 | 0.00 | 45 | 1019.5 |
| 20260831115540 | 73 | 360 | 1.0 | 3.0 | 0.00 | 0.00 | 0.00 | 44 | 1019.7 |